{"data":{"norad_id":61588,"intl_designator":"2024-187Q","name":"STARLINK-32325","alt_names":[],"object_type":"PAYLOAD","status":"ACTIVE","operator":null,"country":"US","launch_date":"2024-10-18","launch_site_code":"AFETR","launch_vehicle":null,"mission":null,"orbit_class":"UNKNOWN","rcs_meters":null,"size_class":null,"mass_kg":null,"dimensions":null,"purposes":["comms"],"wikipedia_slug":null,"has_3d_model":false,"image_url":null,"decayed_at":null,"tle_current":{"epoch":"2026-05-25T04:11:30.581664Z","epoch_age_seconds":53993,"freshness":"FRESH","line1":"1 61588U 24187Q   26145.17465951  .00000633  00000+0  29871-4 0  9998","line2":"2 61588  53.1603  69.0739 0001253  91.0267 269.0879 15.34387711 90806","mean_motion":15.34387711,"eccentricity":0.0001253,"inclination_deg":53.1603,"raan_deg":69.0739,"arg_perigee_deg":91.0267,"mean_anomaly_deg":269.0879,"bstar":2.9871e-5,"rev_number":9080,"period_min":93.848509713462,"perigee_km":461.8826040899,"apogee_km":463.59692780745,"semimajor_km":6840.8767659487,"source":"CELESTRAK","updated_at":"2026-05-25T13:38:19.404765Z"}}}